Regional Weather Roundup
Issued by NWS

Home | Current Version | Previous Version | Graphics & Text | Print | Product List | Glossary On
Versions: 1 2 3 4 5 6 7 8 9 10 11 12 13 14 15 16 17 18 19 20 21 22 23 24 25 26 27 28 29 30 31 32 33 34 35 36 37 38 39 40 41 42 43 44 45 46 47 48 49 50
000
ASUS43 KBIS 011620
RWRND

NORTH DAKOTA REGIONAL WEATHER ROUNDUP
NATIONAL WEATHER SERVICE BISMARCK ND
1100 AM CDT FRI AUG 01 2014

NOTE: "FAIR" INDICATES FEW OR NO CLOUDS BELOW 12,000 FEET WITH NO
SIGNIFICANT WEATHER AND/OR OBSTRUCTIONS TO VISIBILITY.


NDZ001>003-009>011-017-011700-
NORTHWEST NORTH DAKOTA

CITY           SKY/WX    TMP DP  RH WIND       PRES   REMARKS
WILLISTON      LGT RAIN  66  60  81 E14       30.07F
MINOT          SUNNY     76  62  62 NE5       30.09R
MINOT AFB      SUNNY     76  62  62 NE2       30.09R
$$

NDZ018>021-031>035-040>046-011700-
SOUTHWEST NORTH DAKOTA

CITY           SKY/WX    TMP DP  RH WIND       PRES   REMARKS
BISMARCK       SUNNY     79  58  48 S6        30.08S
DICKINSON      MOSUNNY   75  59  57 NE9       30.06S
GARRISON         N/A     77  61  57 E10       30.08S
HETTINGER ARPT PTSUNNY   77  56  48 SE7       30.08S
$$

NDZ004>008-012>016-024-026-027-054-011700-
NORTHEAST NORTH DAKOTA

CITY           SKY/WX    TMP DP  RH WIND       PRES   REMARKS
GRAND FORKS    MOSUNNY   76  59  55 N6        30.07R
GRND FRKS AFB  SUNNY     76  59  56 N3        30.09R
DEVILS LAKE    SUNNY     75  59  57 S7        30.09S
$$

NDZ022-023-025-028>030-036>039-047>053-011700-
SOUTHEAST NORTH DAKOTA

CITY           SKY/WX    TMP DP  RH WIND       PRES   REMARKS
FARGO          MOSUNNY   77  63  61 NE5       30.07R
JAMESTOWN      SUNNY     77  61  57 N5        30.10R
$$



USA.gov is the U.S. government's official web portal to all federal, state and local government web resources and services.